Regional Weather Roundup
Issued by NWS Huntsville, AL

Home | Current Version | Previous Version | Text Only | Print | Product List | Glossary On
Versions: 1 2 3 4 5 6 7 8 9 10 11 12 13 14 15 16 17 18 19 20 21 22 23 24 25 26 27 28 29 30 31 32 33 34 35 36 37 38 39 40 41 42 43 44 45 46 47 48 49 50
000
ASUS44 KHUN 211010
RWRHUN

WEATHER ROUNDUP FOR THE TENNESSEE VALLEY
NATIONAL WEATHER SERVICE HUNTSVILLE AL
500 AM CDT TUE APR 21 2015

ALZ001>004-211100-
NORTHWEST ALABAMA

CITY           SKY/WX    TMP DP  RH WIND       PRES   REMARKS
COURTLAND HCN    N/A     45 N/A N/A CALM        N/A
BANKHEAD NF      N/A     44  42  94 CALM        N/A
RUSSELLVILLE     N/A     41 N/A N/A MISG        N/A
SHOALS AIRPORT CLEAR     47  43  86 W3        29.98R
SHOALS TVA RES   N/A     45 N/A N/A MISG        N/A
$$

ALZ005>007-016-211100-
NORTH CENTRAL ALABAMA

CITY           SKY/WX    TMP DP  RH WIND       PRES   REMARKS
CULLMAN AG STN   N/A     43 N/A N/A CALM        N/A
DECATUR AP     CLEAR     48  44  86 NW7       29.96R
HUNTSVILLE AP  CLEAR     47  44  90 CALM      29.95S
MERIDIANVILLE  CLEAR     43  41  93 CALM      29.95R
REDSTONE ARSN  CLEAR     46  45  95 NW2       29.95R
VINEMONT AP    FAIR      46  41  82 CALM      29.97S
$$

ALZ008>010-211100-
NORTHEAST ALABAMA

CITY           SKY/WX    TMP DP  RH WIND       PRES   REMARKS
ALBERTVILLE    CLEAR     43  43 100 CALM      29.94R
FORT PAYNE     CLEAR     41  37  87 CALM      29.94R FOG
SCOTTSBORO AP  CLEAR     45  45 100 CALM      29.96R
SCOTTSBORO HCN   N/A     43 N/A N/A MISG        N/A
VALLEY HEAD      N/A     41 N/A N/A MISG        N/A
$$

TNZ076-096-097-211100-
SOUTHEASTERN MIDDLE TENNESSEE

CITY           SKY/WX    TMP DP  RH WIND       PRES   REMARKS
TULLAHOMA      CLEAR     39  36  87 CALM      29.95R
WINCHESTER     CLEAR     39  39 100 CALM      29.95R
$$

...SURROUNDING SITES...

CITY           SKY/WX    TMP DP  RH WIND       PRES   REMARKS
ATLANTA        CLEAR     51  43  74 NW8       29.92R
ANNISTON       CLEAR     47  44  90 CALM      29.96R
BIRMINGHAM     CLEAR     48  46  93 CALM      29.97S
CHATTANOOGA    CLEAR     48  44  86 CALM      29.93R
CORINTH        FAIR      45  43  93 CALM      29.98R
DALTON         CLEAR     45  45 100 CALM      29.93R
GADSDEN        CLEAR     46  39  76 CALM      29.94R
GOLDEN TRNGL   CLEAR     48  43  81 NW7       29.99R
HALEYVILLE       N/A     42  42 100 CALM      30.00R
JACKSON TN     CLEAR     42  38  85 S5        29.97R
MEMPHIS        CLEAR     48  38  68 CALM      29.98F
NASHVILLE      PTCLDY    43  42  97 S3        29.94R
OXFORD MS      FAIR      39  39 100 CALM      30.02R
ROME           CLEAR     46  44  93 CALM      29.93R
SAVANNAH       CLEAR     39  32  75 CALM      29.98R
TUPELO         CLEAR     48  39  71 CALM      29.99R
TUSCALOOSA     CLEAR     48  46  93 CALM      29.98R
$$

...GULF COAST WEATHER...

CITY           SKY/WX    TMP DP  RH WIND       PRES   REMARKS
GULFPORT       CLEAR     56  49  77 N5        29.98R
PASCAGOULA       N/A     53  52  96 CALM      29.98S
MOBILE         CLEAR     53  48  83 N6        29.99R
GULF SHORES    SUNNY     56  49  78 N3        29.97S
PENSACOLA      CLEAR     58  49  72 NE7       29.97R
DESTIN         CLEAR     62  50  64 N10       29.97R
PANAMA CITY    CLEAR     63  54  72 N6        29.96R
APPALACHICOLA  CLEAR     65  58  78 N8        29.94R
$$



USA.gov is the U.S. government's official web portal to all federal, state and local government web resources and services.